Wind_Speed
6 6 5 5 4 4 4 4 3 2 2 1 0 0 1 1 1 2 2 3 3 3 4 4 4 5 5 5 5 5 5 5 6 7 7 7 7 7 7 8 8 8 9
7 6 5 5 5 4 4 4 3 3 2 1 0 1 1 2 1 2 3 3 4 5 5 5 5 5 6 7 7 7 6 6 7 7 8 8 8 8 8 8 8 9 9
6 6 5 5 5 5 5 4 3 3 2 1 2 2 2 2 1 2 3 4 4 5 5 6 6 6 7 7 8 8 8 7 7 8 8 8 8 9 9 9 10 10 10
7 6 6 5 5 4 5 5 4 2 2 2 2 2 2 2 2 3 4 4 5 5 5 6 7 7 7 8 8 8 8 7 8 8 8 8 9 9 10 10 11 11 11
7 6 5 5 4 4 4 5 4 3 2 2 2 3 3 3 2 3 5 5 6 6 6 7 7 8 8 8 8 9 9 8 8 9 9 9 10 10 10 10 11 12 12
6 5 5 5 5 4 4 4 4 3 2 2 2 3 4 4 3 3 5 6 7 7 7 7 8 7 8 8 9 9 9 9 9 10 10 10 10 11 11 11 11 12 12
5 5 5 5 5 4 4 4 4 3 2 3 3 4 5 5 5 5 6 6 7 7 7 7 8 9 8 9 9 10 10 10 10 10 10 11 11 11 11 11 12 12 12
6 5 5 5 5 5 4 4 4 3 3 3 4 4 5 6 6 7 7 7 7 7 7 8 8 9 9 9 10 10 11 11 11 11 10 11 11 12 12 12 12 12 12
5 4 5 5 5 4 4 4 4 4 4 5 5 5 6 6 7 8 8 9 9 9 10 10 10 9 10 11 11 11 11 11 10 10 10 10 11 11 11 12 13 13 12
5 4 5 5 5 6 5 5 5 5 5 5 5 6 7 7 8 8 9 9 10 10 11 11 11 11 11 12 12 12 12 11 10 11 12 12 12 12 11 12 13 12 13
5 5 5 5 6 6 6 6 6 6 6 6 6 7 8 8 9 9 9 10 10 11 11 11 12 12 13 13 12 13 13 12 12 13 13 13 13 13 14 14 14 14 14
5 5 5 5 6 7 7 7 7 7 7 8 8 8 9 9 9 10 10 11 10 10 11 12 12 13 14 13 13 15 15 15 15 14 14 14 15 15 15 15 16 16 16
6 6 6 7 6 7 7 8 8 9 9 9 10 10 10 10 10 11 11 12 12 11 12 13 14 14 15 15 15 16 17 17 16 16 16 16 16 16 16 17 17 17 17
7 7 7 8 8 7 8 8 9 10 11 11 12 12 11 11 12 12 13 13 13 13 14 14 14 15 16 17 17 18 19 18 18 18 18 18 18 18 18 18 18 18 18
7 8 9 8 9 9 9 10 11 11 12 13 13 13 13 13 14 14 15 15 15 15 16 16 16 17 17 17 17 18 19 20 20 20 20 20 20 20 19 19 19 19 19
9 9 10 10 10 11 12 12 13 13 13 14 14 15 15 15 15 16 16 16 16 17 17 17 17 17 19 19 19 20 21 22 22 21 22 22 22 21 21 21 21 20 20
11 11 11 11 11 12 13 14 15 15 15 16 16 16 16 17 17 18 18 18 18 19 18 18 19 20 21 22 22 22 23 23 23 22 23 24 23 23 22 22 22 22 21
12 12 12 12 13 14 15 15 16 16 17 17 17 17 18 18 19 19 20 20 20 20 21 21 21 22 22 23 24 24 25 25 25 24 24 24 24 23 23 23 23 22 22
14 14 14 15 15 15 16 16 17 17 17 18 19 19 19 19 20 21 22 22 22 22 22 23 23 24 24 24 25 25 26 27 27 26 25 25 24 23 23 24 24 23 23
16 16 16 17 17 17 18 18 18 18 19 20 20 20 20 21 21 22 23 23 23 24 24 25 25 25 25 26 26 26 26 26 26 26 26 25 24 24 24 25 25 25 24
18 18 18 18 19 19 20 20 20 20 21 21 21 22 22 23 24 24 25 25 25 26 27 27 28 28 27 27 27 26 27 27 27 27 26 25 25 26 26 26 26 26 25
20 20 20 21 20 21 21 21 22 22 23 23 24 24 24 25 25 26 27 27 27 28 28 29 29 29 27 27 26 27 28 28 27 27 27 27 27 27 27 26 26 27 27
22 22 22 22 22 22 23 24 24 25 24 25 25 26 26 26 26 27 28 28 28 29 30 29 29 28 28 28 28 28 29 29 29 28 28 28 28 28 28 28 27 27 28
24 24 24 24 24 25 25 26 26 26 26 26 27 28 28 28 28 28 28 29 29 30 31 30 29 28 28 28 28 28 28 28 28 28 28 28 28 29 28 28 28 28 29
25 26 26 27 27 27 27 28 28 28 28 28 28 29 29 29 29 29 29 30 30 29 29 29 29 29 29 29 29 29 28 28 28 28 28 28 29 29 28 28 28 29 30
28 28 28 29 29 29 28 28 29 30 30 29 29 29 29 29 30 29 30 30 30 29 29 29 30 30 30 31 31 30 29 29 28 28 29 29 30 30 30 30 30 30 30
Wind_Direction
79 87 81 85 84 82 83 89 96 97 94 90 161 237 300 305 315 319 338 339 333 331 333 334 330 328 326 318 313 307 299 302 301 301 303 302 293 289 287 281 276 272 273
71 72 79 84 88 88 84 82 91 90 81 81 33 337 332 322 314 303 311 312 310 316 321 321 320 326 325 320 311 308 303 302 302 300 299 300 295 288 288 285 282 276 276
75 73 77 85 91 90 80 81 87 83 70 48 15 352 328 317 302 294 299 300 299 304 311 312 315 316 318 317 314 306 304 304 303 302 300 300 297 293 287 285 281 281 276
65 70 73 78 76 74 68 62 62 61 42 19 358 348 338 319 296 297 291 293 297 295 301 303 307 309 312 310 311 308 305 302 301 302 298 297 296 295 290 284 282 279 276
59 62 65 68 61 55 57 54 49 43 31 14 356 347 345 338 314 300 299 304 310 295 291 295 301 305 305 305 307 305 301 299 298 299 298 296 296 295 292 287 285 279 277
50 51 55 54 49 50 53 45 40 36 23 4 349 349 346 341 332 306 305 309 311 309 301 303 305 307 302 299 303 303 302 300 297 298 297 296 296 295 294 293 293 285 278
46 52 54 53 43 38 33 22 19 15 6 347 340 335 334 335 328 322 319 319 315 312 305 304 307 308 307 305 303 304 303 302 300 304 300 298 296 294 293 291 292 288 282
43 43 45 38 29 26 26 18 8 358 347 331 326 325 323 324 319 321 323 321 320 319 315 314 311 306 305 307 306 307 309 304 304 305 302 301 298 295 295 291 288 288 283
34 28 18 16 18 14 11 8 2 354 340 335 326 320 321 320 317 318 320 319 318 318 316 313 307 305 303 299 298 298 303 303 303 301 301 304 305 302 290 292 287 285 285
29 14 4 4 1 358 351 348 346 343 342 330 320 315 314 312 314 315 314 312 313 311 310 309 304 305 301 297 299 298 301 302 300 297 298 299 303 302 299 296 293 287 285
10 0 354 351 343 338 335 334 335 337 335 329 317 311 310 310 311 310 310 308 305 303 302 303 306 305 301 297 300 301 302 300 296 294 295 294 294 295 296 296 294 289 286
351 347 342 334 329 326 325 329 330 326 325 325 322 316 310 308 310 308 310 309 305 301 300 301 301 301 302 302 302 302 301 302 299 294 294 293 293 295 295 294 296 293 289
337 330 328 326 321 317 318 322 323 321 317 317 317 315 312 308 306 306 305 304 300 301 301 298 296 296 299 300 301 301 300 302 301 297 294 293 292 292 292 292 293 291 288
330 331 322 314 316 311 308 312 314 315 314 313 313 312 310 310 308 305 305 308 303 303 301 298 295 295 295 296 299 300 300 302 300 297 295 292 290 289 289 288 288 287 285
320 320 316 308 306 307 306 307 309 309 310 309 308 306 304 304 306 305 302 303 303 300 298 297 298 299 298 298 300 300 299 298 298 292 290 290 290 289 288 288 286 284 284
309 310 309 303 301 303 304 305 305 304 305 305 305 305 304 303 303 304 305 305 303 302 300 297 298 299 300 299 299 298 296 295 296 292 289 289 290 290 288 290 287 285 284
300 302 304 301 300 300 302 303 303 303 302 301 301 301 300 300 301 300 300 302 301 300 301 301 299 299 297 297 296 296 296 295 295 293 290 288 288 288 287 287 287 286 284
295 296 297 300 301 299 298 298 298 299 300 300 299 298 297 297 297 297 296 299 300 300 300 301 299 298 297 297 295 295 295 294 292 291 290 287 287 286 285 286 285 284 283
291 292 291 292 296 298 297 297 299 300 301 302 300 299 299 299 299 298 297 296 298 298 298 299 298 298 297 296 295 294 295 295 294 291 287 285 285 285 285 285 285 284 282
290 290 289 290 292 295 296 295 295 298 299 302 303 300 299 298 297 297 298 296 295 295 295 297 298 298 297 295 294 293 294 296 296 292 288 285 284 285 285 285 285 283 281
289 289 289 290 290 292 292 293 293 294 297 298 300 300 298 297 296 296 296 297 295 295 294 294 295 295 294 293 293 293 293 293 294 292 288 285 284 284 286 287 285 283 280
291 290 292 291 289 289 290 290 294 293 292 294 298 300 299 298 298 298 296 297 296 295 294 295 294 292 291 291 291 292 291 291 292 291 287 285 284 284 285 287 285 283 281
289 290 291 290 290 288 286 287 290 290 290 292 295 296 298 299 298 299 299 298 297 297 295 294 293 292 292 293 292 293 291 289 288 289 287 285 284 284 284 285 285 283 281
288 288 288 288 288 287 286 285 287 289 289 289 290 292 294 297 299 298 297 297 297 297 295 294 293 293 295 297 296 295 293 291 290 289 287 286 286 287 286 284 284 282 280
286 286 287 287 286 286 285 285 286 287 289 289 290 291 292 295 296 298 297 296 297 299 297 296 295 294 294 295 295 294 294 292 290 290 289 288 287 287 285 285 284 282 280
283 284 285 286 285 284 285 286 287 286 287 288 289 291 292 293 294 295 296 296 296 296 296 296 296 295 294 294 295 294 294 292 290 289 289 288 287 287 286 285 283 282 280
Height
5892 5892 5892 5892 5892 5892 5892 5891 5892 5892 5892 5892 5893 5893 5892 5892 5892 5892 5891 5890 5889 5888 5888 5887 5886 5885 5884 5883 5882 5881 5880 5879 5879 5878 5877 5876 5875 5874 5873 5872 5871 5871 5870
5893 5893 5893 5893 5893 5892 5892 5892 5892 5892 5893 5893 5893 5892 5892 5892 5891 5891 5890 5890 5889 5888 5887 5886 5885 5884 5883 5882 5881 5880 5879 5878 5877 5876 5875 5874 5873 5872 5871 5870 5869 5868 5868
5895 5894 5894 5894 5893 5893 5893 5893 5893 5893 5892 5892 5892 5892 5892 5891 5891 5890 5890 5889 5888 5887 5886 5885 5884 5883 5882 5881 5880 5878 5877 5876 5875 5874 5873 5872 5871 5870 5869 5868 5867 5866 5865
5896 5895 5895 5894 5894 5894 5894 5893 5893 5893 5892 5892 5892 5892 5891 5890 5890 5889 5888 5888 5887 5886 5885 5884 5883 5882 5880 5879 5878 5876 5875 5874 5873 5872 5871 5869 5868 5867 5866 5865 5864 5863 5862
5897 5896 5896 5895 5895 5895 5894 5894 5893 5893 5892 5892 5892 5891 5891 5890 5889 5888 5888 5887 5886 5884 5883 5882 5881 5880 5879 5877 5876 5874 5873 5871 5870 5869 5868 5867 5866 5864 5863 5862 5861 5860 5859
5897 5897 5896 5896 5895 5895 5894 5894 5893 5893 5892 5892 5891 5891 5890 5889 5889 5888 5886 5885 5884 5882 5881 5881 5879 5878 5877 5876 5874 5873 5871 5868 5867 5866 5865 5864 5863 5862 5860 5859 5858 5857 5856
5898 5897 5896 5896 5895 5895 5894 5894 5893 5892 5892 5891 5891 5890 5889 5888 5888 5887 5885 5884 5883 5881 5880 5879 5877 5876 5875 5874 5872 5871 5869 5867 5865 5864 5862 5861 5860 5859 5857 5856 5855 5854 5853
5898 5897 5897 5896 5895 5895 5894 5893 5892 5891 5891 5890 5890 5889 5888 5888 5886 5884 5883 5882 5881 5879 5878 5877 5875 5874 5873 5872 5870 5868 5866 5865 5863 5862 5860 5858 5857 5856 5854 5853 5852 5850 5849
5898 5898 5897 5896 5895 5894 5893 5892 5892 5891 5890 5889 5888 5888 5887 5886 5884 5883 5882 5880 5879 5878 5877 5875 5873 5872 5870 5869 5867 5866 5864 5862 5861 5859 5857 5856 5854 5852 5851 5849 5848 5847 5846
5898 5898 5897 5896 5895 5894 5893 5892 5891 5890 5889 5888 5887 5886 5886 5885 5883 5882 5881 5879 5878 5876 5875 5873 5871 5870 5868 5866 5865 5863 5861 5859 5858 5856 5854 5853 5851 5850 5848 5846 5845 5844 5843
5898 5897 5896 5895 5894 5893 5892 5891 5890 5889 5888 5887 5886 5885 5884 5883 5882 5880 5879 5878 5876 5874 5872 5871 5869 5868 5866 5864 5862 5861 5858 5857 5855 5853 5851 5849 5848 5846 5845 5843 5841 5840 5839
5897 5896 5895 5894 5893 5892 5891 5890 5889 5888 5887 5885 5884 5883 5882 5881 5879 5878 5877 5875 5873 5871 5870 5868 5867 5865 5863 5861 5859 5858 5856 5854 5851 5850 5848 5846 5844 5843 5841 5840 5838 5836 5835
5896 5895 5894 5893 5892 5891 5890 5888 5887 5886 5885 5884 5882 5881 5879 5878 5877 5875 5874 5872 5871 5869 5867 5865 5864 5862 5860 5858 5856 5854 5852 5849 5847 5846 5844 5843 5841 5839 5837 5836 5834 5832 5831
5895 5893 5892 5891 5890 5889 5888 5887 5886 5884 5883 5881 5880 5878 5877 5875 5874 5872 5871 5869 5867 5865 5864 5862 5860 5858 5857 5855 5853 5850 5848 5845 5843 5841 5840 5838 5836 5834 5832 5831 5830 5828 5826
5893 5891 5890 5889 5888 5887 5886 5884 5883 5882 5881 5879 5877 5876 5874 5872 5871 5869 5867 5865 5864 5862 5860 5858 5856 5854 5852 5851 5848 5846 5843 5841 5839 5836 5834 5833 5831 5829 5827 5826 5824 5823 5821
5890 5889 5888 5886 5885 5884 5883 5882 5880 5879 5878 5876 5874 5872 5871 5869 5867 5865 5863 5861 5859 5858 5856 5854 5852 5849 5848 5846 5843 5841 5838 5836 5833 5831 5829 5827 5825 5823 5822 5820 5819 5817 5815
5887 5886 5885 5884 5883 5881 5880 5879 5877 5875 5874 5872 5870 5868 5867 5865 5863 5861 5859 5857 5855 5853 5851 5849 5847 5844 5842 5840 5838 5835 5833 5830 5828 5825 5823 5821 5819 5817 5816 5814 5812 5811 5809
5884 5883 5881 5880 5879 5877 5876 5875 5873 5871 5870 5868 5866 5864 5862 5860 5858 5856 5854 5852 5850 5848 5846 5844 5841 5839 5836 5834 5831 5829 5826 5824 5821 5818 5816 5814 5812 5810 5809 5807 5806 5804 5802
5880 5878 5877 5876 5874 5873 5872 5870 5868 5867 5865 5863 5861 5859 5857 5855 5852 5850 5848 5846 5844 5842 5840 5837 5835 5832 5830 5827 5824 5822 5819 5817 5814 5811 5809 5806 5805 5803 5802 5800 5799 5797 5796
5875 5874 5872 5871 5870 5868 5867 5865 5864 5862 5860 5858 5855 5853 5851 5849 5847 5844 5842 5840 5837 5835 5833 5830 5828 5825 5823 5820 5817 5814 5812 5809 5807 5804 5801 5799 5797 5796 5795 5793 5792 5790 5788
5870 5869 5867 5866 5864 5863 5861 5860 5858 5856 5854 5852 5850 5847 5845 5843 5840 5838 5836 5833 5830 5828 5825 5823 5820 5818 5815 5812 5810 5807 5804 5802 5800 5797 5794 5792 5790 5789 5787 5785 5783 5781 5779
5864 5863 5862 5860 5858 5857 5855 5854 5852 5850 5848 5846 5844 5841 5839 5836 5833 5830 5828 5825 5822 5820 5817 5815 5812 5809 5807 5804 5801 5799 5796 5794 5792 5790 5787 5785 5782 5781 5779 5777 5775 5773 5771
5858 5857 5855 5853 5852 5850 5849 5847 5845 5843 5841 5839 5837 5834 5832 5829 5826 5822 5820 5817 5815 5812 5809 5807 5804 5801 5799 5796 5793 5791 5788 5786 5784 5782 5779 5777 5774 5772 5771 5769 5767 5765 5763
5851 5850 5848 5846 5845 5843 5841 5840 5838 5835 5834 5832 5829 5827 5824 5822 5818 5815 5812 5809 5806 5804 5801 5799 5796 5793 5791 5788 5785 5782 5780 5777 5775 5773 5771 5769 5766 5764 5762 5760 5758 5756 5754
5844 5842 5840 5839 5837 5835 5833 5831 5830 5827 5825 5823 5821 5819 5816 5814 5810 5807 5804 5802 5799 5796 5793 5790 5788 5785 5782 5779 5777 5774 5771 5769 5767 5765 5762 5760 5758 5755 5754 5752 5749 5747 5746
5836 5834 5832 5830 5829 5827 5825 5823 5821 5819 5817 5815 5813 5810 5808 5805 5802 5799 5797 5794 5791 5788 5785 5782 5780 5777 5774 5771 5768 5765 5763 5760 5758 5757 5754 5751 5749 5746 5745 5743 5740 5738 5736